Location: La Brionne
(46.1728°N, 1.7849°E)
Time: 06:51:37
(UTC+00:00)

Okean 1-7 Rocket - Pass Details

Date: 16 June 2021
Orbit: 616 x 649 km, 82.5° (Epoch: 02 August)

Event Time Altitude Azimuth Distance (km) Brightness Sun altitude
Exits shadow 23:06:12 38° 127° (SE) 979 4.2 -19.6°
Maximum altitude 23:07:11 44° 93° (E) 884 4.2 -19.7°
Drops below altitude 10° 23:11:26 10° 21° (NNE) 2,018 7.0 -19.8°
Sets 23:13:44 0° 15° (NNE) 2,925 8.2 -19.9°
